Weather past 2 weeks in Saipan, Northern Mariana Islands

Now
81 °F

Overcast.


Feels Like: 85 °F
Forecast: 75 / 81 °F
Wind: 18 mph from East

Location: Saipan International Airport

Current Time: Mar 30, 2015 at 8:56:41 PM

Latest Report: Mar 30, 2015 at 8:03 PM


Visibility: 10 mi

Pressure: 29.95 "Hg

Humidity: 79%

Dew point: 73 °F

Location of SaipanLocation

Historic Weather in Saipan — Graph

°F

Saipan temperature yesterday

Maximum temperature yesterday: 83 °F (at 1:54 PM)
Minimum temperature yesterday: 75 °F (at 12:07 AM)
Average temperature yesterday: 79 °F

Past Weeks' High & Low Weather Summary

 TemperatureHumidityPressure
High86 °F (Mar 16, 12:08 PM)100% (Mar 18, 4:14 AM)30.15 "Hg (Mar 18, 4:14 AM)
Low73 °F (Mar 27, 11:54 PM)59% (Mar 25, 8:54 AM)29.65 "Hg (Mar 15, 8:35 PM)
Average79 °F83%29.97 "Hg
* Reported Mar 15 7:54 PM — Mar 30 7:54 PM, Saipan, Weather by CustomWeather, © 2015

Note: Actual official high and low records may vary slightly from our data, if they occured in-between our weather recording intervals... More about our weather records

Advertising

Saipan weather history for previous 24 hours

 ConditionsComfort  
Time TempWeatherWind HumidityBarometerVisibility
7:54 PM
Mon, Mar 30
80 °FOvercast.21 mph81%30.01 "Hg10 mi
7:25 PM81 °FOvercast.18 mph79%29.94 "Hg10 mi
6:54 PM80 °FPassing clouds.20 mph81%29.99 "Hg10 mi
5:54 PM80 °FScattered clouds.21 mph81%29.97 "Hg10 mi
5:03 PM81 °FScattered clouds.22 mph79%29.89 "Hg10 mi
4:30 PM81 °FMostly cloudy.21 mph79%29.89 "Hg10 mi
4:12 PM82 °FMostly cloudy.21 mph74%29.88 "Hg10 mi
3:54 PM82 °FMostly cloudy.21 mph77%29.94 "Hg10 mi
3:30 PM82 °FMostly cloudy.22 mph74%29.88 "Hg10 mi
3:19 PM82 °FMore clouds than sun.22 mph74%29.87 "Hg10 mi
2:54 PM84 °FMostly cloudy.25 mph72%29.93 "Hg10 mi
1:54 PM85 °FScattered clouds.23 mph70%29.94 "Hg10 mi
12:54 PM85 °FScattered clouds.24 mph68%29.96 "Hg10 mi
11:54 AM84 °FScattered clouds.23 mph70%29.97 "Hg10 mi
10:54 AM84 °FScattered clouds.23 mph72%29.99 "Hg10 mi
9:54 AM84 °FScattered clouds.22 mph72%30.00 "Hg10 mi
8:54 AM81 °FScattered clouds.24 mph77%30.03 "Hg10 mi
7:54 AM80 °FScattered clouds.22 mph79%30.01 "Hg10 mi
6:54 AM79 °FPartly sunny.22 mph79%29.99 "Hg10 mi
5:54 AM78 °FPassing clouds.21 mph87%29.98 "Hg10 mi
4:54 AM78 °FPartly cloudy.18 mph87%29.97 "Hg10 mi
4:31 AM79 °FMostly cloudy.20 mph84%29.90 "Hg10 mi
4:01 AM79 °FOvercast.17 mph84%29.91 "Hg10 mi
2:54 AM78 °FPassing clouds.15 mph87%29.99 "Hg10 mi
1:54 AM78 °FMostly cloudy.20 mph87%30.01 "Hg10 mi
1:23 AM79 °FMostly cloudy.18 mph84%29.95 "Hg10 mi
12:54 AM79 °FPartly cloudy.20 mph84%30.03 "Hg10 mi
12:47 AM79 °FPartly cloudy.17 mph84%29.96 "Hg10 mi
12:04 AM79 °FPartly cloudy.18 mph84%29.97 "Hg10 mi
10:54 PM
Sun, Mar 29
79 °FMostly cloudy.16 mph84%30.06 "Hg10 mi
9:54 PM79 °FMostly cloudy.17 mph84%30.06 "Hg10 mi
9:31 PM79 °FMostly cloudy.17 mph84%29.99 "Hg10 mi
9:02 PM79 °FOvercast.22 mph89%29.98 "Hg10 mi
8:28 PM79 °FOvercast.15 mph89%29.97 "Hg10 mi
Weather by CustomWeather, © 2015

See weather overviewHow to use our weather pages